STARLINK-3861 (52503 NORAD) Tracking and Keplerian Element Data

This shows tracking and keplerian element data for the satellite.

Feedback or suggestion? Click here.




ElementValue
Catalog52503
NameSTARLINK-3861
Epoch Orbit1069
Epoch Day193.25001157
Epoch Year2022
RAAN295.4606
Inclination53.2167
Eccentricity0.0002974
Argument of Perigee12.1962
Mean Anonmoly108.3215
Mean Motion15.72838663
Decay Rate0.00530843
L11 52503U 22049BE 22193.25001157 .00530843 00000+0 36081-2 0 9992
L22 52503 53.2167 295.4606 0002974 12.1962 108.3215 15.72838663 10691

Live tracking and technical data element details for STARLINK-3861 (NORAD 52503). STARLINK-3861 can be tracked NOW for your location showing map with azimuth and elevation plus other details from your city location.

Track the satellite on the map from your city or location and see movement details for azimuth, elevation, latitude, longitude, range, height, and movement on the map or in text.







IsCatalogInMostPopularTable: catalog: 52503, numindb: 5
Update: records affected: 1



GetName: 52503 STARLINK-3861

Hit Count: updated at: Sat, 13 Aug 2022 23:46:41 GMT